Location: Unspecified
(49.2170°N, 0.0000°E)
Time: 04:04:09
(UTC+00:00)

Transit 2A - Pass Details

Date: 21 June 2019
Orbit: 594 x 965 km, 66.7° (Epoch: 17 July)

Event Time Altitude Azimuth Distance (km) Brightness Sun altitude
Rises 00:57:58 0° 213° (SSW) 3,624 - -16.3°
Reaches altitude 10° 01:00:31 10° 214° (SW) 2,693 - -16.2°
Exits shadow 01:02:36 22° 214° (SW) 1,960 7.5 -16.1°
Maximum altitude 01:06:55 90° 298° (WNW) 966 6.4 -15.9°
Drops below altitude 10° 01:13:11 10° 36° (NE) 2,641 9.9 -15.6°
Sets 01:15:39 0° 37° (NE) 3,549 10.9 -15.5°
